Time,TemperatureF,DewpointF,PressureIn,WindDirection,WindDirectionDegrees,WindSpeedMPH,WindSpeedGustMPH,Humidity,HourlyPrecipIn,Conditions,Clouds,dailyrainin,SoftwareType,DateUTC
2013-05-28 00:01:00,53.2,51.8,29.85,SW,225,5.0,8.0,95,0.00,,,0.00,WeatherCatV1.15B25,2013-05-28 07:01:00,
2013-05-28 00:06:00,53.1,51.4,29.85,SSW,201,2.0,6.0,94,0.00,,,0.00,WeatherCatV1.15B25,2013-05-28 07:06:00,
2013-05-28 00:11:00,53.0,51.3,29.85,SW,226,3.0,6.0,94,0.00,,,0.00,WeatherCatV1.15B25,2013-05-28 07:11:00,
2013-05-28 00:16:00,52.9,51.2,29.85,East,97,4.0,5.0,94,0.00,,,0.00,WeatherCatV1.15B25,2013-05-28 07:16:00,
2013-05-28 00:21:00,52.9,51.2,29.85,SE,143,4.0,5.0,94,0.00,,,0.00,WeatherCatV1.15B25,2013-05-28 07:21:00,
2013-05-28 00:26:00,52.8,51.1,29.85,SSE,149,2.0,5.0,94,0.00,,,0.00,WeatherCatV1.15B25,2013-05-28 07:26:00,
2013-05-28 00:31:00,52.7,51.0,29.85,SSE,157,2.0,5.0,94,0.00,,,0.00,WeatherCatV1.15B25,2013-05-28 07:31:00,
2013-05-28 00:36:00,52.6,50.9,29.85,South,191,1.0,5.0,94,0.00,,,0.00,WeatherCatV1.15B25,2013-05-28 07:36:00,
2013-05-28 00:41:00,52.6,51.2,29.86,SSE,150,3.0,3.0,95,0.00,,,0.00,WeatherCatV1.15B25,2013-05-28 07:41:00,
2013-05-28 00:46:00,52.5,51.1,29.86,South,176,1.0,2.0,95,0.00,,,0.00,WeatherCatV1.15B25,2013-05-28 07:46:00,
2013-05-28 00:51:00,52.5,51.1,29.86,SSE,165,1.0,2.0,95,0.00,,,0.00,WeatherCatV1.15B25,2013-05-28 07:51:00,
2013-05-28 00:56:00,52.5,51.1,29.86,SSW,207,2.0,3.0,95,0.00,,,0.00,WeatherCatV1.15B25,2013-05-28 07:56:00,
2013-05-28 01:01:00,52.4,51.0,29.86,SW,226,2.0,4.0,95,0.00,,,0.00,WeatherCatV1.15B25,2013-05-28 08:01:00,
2013-05-28 01:06:00,52.4,51.0,29.86,SSW,194,2.0,4.0,95,0.00,,,0.00,WeatherCatV1.15B25,2013-05-28 08:06:00,
2013-05-28 01:11:00,52.4,51.0,29.86,SSE,167,5.0,5.0,95,0.00,,,0.00,WeatherCatV1.15B25,2013-05-28 08:11:00,
2013-05-28 01:16:00,52.4,51.0,29.86,SW,229,2.0,3.0,95,0.00,,,0.00,WeatherCatV1.15B25,2013-05-28 08:16:00,
2013-05-28 01:21:00,52.3,50.9,29.86,SSE,157,1.0,3.0,95,0.00,,,0.00,WeatherCatV1.15B25,2013-05-28 08:21:00,
2013-05-28 01:26:00,52.4,51.0,29.86,South,183,1.0,2.0,95,0.00,,,0.00,WeatherCatV1.15B25,2013-05-28 08:26:00,
2013-05-28 01:31:00,52.4,51.0,29.86,SSW,211,1.0,6.0,95,0.00,,,0.00,WeatherCatV1.15B25,2013-05-28 08:31:00,
2013-05-28 01:36:00,52.4,51.0,29.87,SSW,193,4.0,5.0,95,0.00,,,0.00,WeatherCatV1.15B25,2013-05-28 08:36:00,
2013-05-28 01:41:00,52.5,51.1,29.87,SSE,152,2.0,4.0,95,0.00,,,0.00,WeatherCatV1.15B25,2013-05-28 08:41:00,
2013-05-28 01:46:00,52.5,51.1,29.87,SSE,165,1.0,6.0,95,0.00,,,0.00,WeatherCatV1.15B25,2013-05-28 08:46:00,
2013-05-28 01:51:00,52.5,51.1,29.87,SSE,148,6.0,6.0,95,0.00,,,0.00,WeatherCatV1.15B25,2013-05-28 08:51:00,
2013-05-28 01:56:00,52.4,51.0,29.87,South,191,5.0,10.0,95,0.00,,,0.00,WeatherCatV1.15B25,2013-05-28 08:56:00,
2013-05-28 02:01:00,52.4,51.0,29.87,SE,146,4.0,7.0,95,0.00,,,0.00,WeatherCatV1.15B25,2013-05-28 09:01:00,
2013-05-28 02:06:00,52.4,51.0,29.87,SSW,203,7.0,7.0,95,0.00,,,0.00,WeatherCatV1.15B25,2013-05-28 09:06:00,
2013-05-28 02:11:00,52.3,50.9,29.88,SSE,157,5.0,7.0,95,0.00,,,0.00,WeatherCatV1.15B25,2013-05-28 09:11:00,
2013-05-28 02:16:00,52.2,50.8,29.87,SSE,166,6.0,6.0,95,0.00,,,0.00,WeatherCatV1.15B25,2013-05-28 09:16:00,
2013-05-28 02:21:00,52.1,50.7,29.87,SW,224,4.0,6.0,95,0.00,,,0.00,WeatherCatV1.15B25,2013-05-28 09:21:00,
2013-05-28 02:26:00,52.0,50.6,29.88,SSE,160,3.0,7.0,95,0.00,,,0.00,WeatherCatV1.15B25,2013-05-28 09:26:00,
2013-05-28 02:31:00,51.9,50.5,29.88,SE,136,2.0,6.0,95,0.00,,,0.00,WeatherCatV1.15B25,2013-05-28 09:31:00,
2013-05-28 02:36:00,51.8,50.4,29.88,SSE,156,2.0,4.0,95,0.00,,,0.00,WeatherCatV1.15B25,2013-05-28 09:36:00,
2013-05-28 02:41:00,51.7,50.3,29.88,SSE,153,7.0,7.0,95,0.00,,,0.00,WeatherCatV1.15B25,2013-05-28 09:41:00,
2013-05-28 02:46:00,51.8,50.4,29.88,ESE,117,6.0,7.0,95,0.00,,,0.00,WeatherCatV1.15B25,2013-05-28 09:46:00,
2013-05-28 02:51:00,51.8,50.1,29.88,South,172,6.0,10.0,94,0.00,,,0.00,WeatherCatV1.15B25,2013-05-28 09:51:00,
2013-05-28 02:56:00,51.8,50.1,29.88,SSW,210,3.0,7.0,94,0.00,,,0.00,WeatherCatV1.15B25,2013-05-28 09:56:00,
2013-05-28 03:01:00,51.8,50.1,29.88,South,170,5.0,5.0,94,0.00,,,0.00,WeatherCatV1.15B25,2013-05-28 10:01:00,
2013-05-28 03:06:00,51.7,50.0,29.88,SSW,201,3.0,5.0,94,0.00,,,0.00,WeatherCatV1.15B25,2013-05-28 10:06:00,
2013-05-28 03:11:00,51.7,50.0,29.88,SE,124,3.0,4.0,94,0.00,,,0.00,WeatherCatV1.15B25,2013-05-28 10:11:00,
2013-05-28 03:16:00,51.7,50.0,29.89,SSE,162,5.0,7.0,94,0.00,,,0.00,WeatherCatV1.15B25,2013-05-28 10:16:00,
2013-05-28 03:21:00,51.6,49.9,29.89,SSE,162,1.0,4.0,94,0.00,,,0.00,WeatherCatV1.15B25,2013-05-28 10:21:00,
2013-05-28 03:26:00,51.6,49.9,29.89,SE,128,4.0,5.0,94,0.00,,,0.00,WeatherCatV1.15B25,2013-05-28 10:26:00,
2013-05-28 03:31:00,51.5,49.8,29.89,SSE,149,3.0,6.0,94,0.00,,,0.00,WeatherCatV1.15B25,2013-05-28 10:31:00,
2013-05-28 03:36:00,51.6,49.9,29.89,SE,135,2.0,2.0,94,0.00,,,0.00,WeatherCatV1.15B25,2013-05-28 10:36:00,
2013-05-28 03:41:00,51.5,49.8,29.89,SSE,147,1.0,3.0,94,0.00,,,0.00,WeatherCatV1.15B25,2013-05-28 10:41:00,
2013-05-28 03:46:00,51.4,49.7,29.89,ESE,117,0.0,1.0,94,0.00,,,0.00,WeatherCatV1.15B25,2013-05-28 10:46:00,
2013-05-28 03:51:00,51.4,50.0,29.89,SE,124,1.0,2.0,95,0.00,,,0.00,WeatherCatV1.15B25,2013-05-28 10:51:00,
2013-05-28 03:56:00,51.3,49.9,29.89,SSE,149,3.0,3.0,95,0.00,,,0.00,WeatherCatV1.15B25,2013-05-28 10:56:00,
2013-05-28 04:01:00,51.3,49.9,29.89,South,181,2.0,4.0,95,0.00,,,0.00,WeatherCatV1.15B25,2013-05-28 11:01:00,
2013-05-28 04:06:00,51.2,49.8,29.89,SE,139,2.0,5.0,95,0.00,,,0.00,WeatherCatV1.15B25,2013-05-28 11:06:00,
2013-05-28 04:11:00,51.2,49.8,29.89,SE,124,1.0,3.0,95,0.00,,,0.00,WeatherCatV1.15B25,2013-05-28 11:11:00,
2013-05-28 04:16:00,51.1,49.7,29.89,SE,135,1.0,2.0,95,0.00,,,0.00,WeatherCatV1.15B25,2013-05-28 11:16:00,
2013-05-28 04:21:00,51.0,49.6,29.89,SE,146,1.0,1.0,95,0.00,,,0.00,WeatherCatV1.15B25,2013-05-28 11:21:00,
2013-05-28 04:26:00,51.0,49.6,29.89,SE,134,1.0,3.0,95,0.00,,,0.00,WeatherCatV1.15B25,2013-05-28 11:26:00,
2013-05-28 04:31:00,50.9,49.5,29.89,ESE,115,2.0,3.0,95,0.00,,,0.00,WeatherCatV1.15B25,2013-05-28 11:31:00,
2013-05-28 04:36:00,50.9,49.5,29.89,SE,136,1.0,2.0,95,0.00,,,0.00,WeatherCatV1.15B25,2013-05-28 11:36:00,
2013-05-28 04:41:00,50.8,49.4,29.89,South,176,0.0,2.0,95,0.00,,,0.00,WeatherCatV1.15B25,2013-05-28 11:41:00,
2013-05-28 04:46:00,50.8,49.4,29.90,ESE,120,0.0,2.0,95,0.00,,,0.00,WeatherCatV1.15B25,2013-05-28 11:46:00,
2013-05-28 04:51:00,50.8,49.4,29.90,SSE,154,1.0,1.0,95,0.00,,,0.00,WeatherCatV1.15B25,2013-05-28 11:51:00,
2013-05-28 04:56:00,50.7,49.3,29.90,South,176,1.0,4.0,95,0.00,,,0.00,WeatherCatV1.15B25,2013-05-28 11:56:00,
2013-05-28 05:01:00,50.8,49.4,29.90,SSE,161,0.0,2.0,95,0.00,,,0.00,WeatherCatV1.15B25,2013-05-28 12:01:00,
2013-05-28 05:06:00,50.8,49.4,29.90,SE,139,1.0,2.0,95,0.00,,,0.00,WeatherCatV1.15B25,2013-05-28 12:06:00,
2013-05-28 05:11:00,50.8,49.4,29.90,SSW,205,0.0,1.0,95,0.00,,,0.00,WeatherCatV1.15B25,2013-05-28 12:11:00,
2013-05-28 05:16:00,50.8,49.4,29.90,SSW,205,0.0,2.0,95,0.00,,,0.00,WeatherCatV1.15B25,2013-05-28 12:16:00,
2013-05-28 05:21:00,50.8,49.4,29.90,East,101,1.0,2.0,95,0.00,,,0.00,WeatherCatV1.15B25,2013-05-28 12:21:00,
2013-05-28 05:26:00,50.8,49.4,29.90,SE,139,0.0,3.0,95,0.00,,,0.00,WeatherCatV1.15B25,2013-05-28 12:26:00,
2013-05-28 05:31:00,50.8,49.4,29.90,West,276,0.0,1.0,95,0.00,,,0.00,WeatherCatV1.15B25,2013-05-28 12:31:00,
2013-05-28 05:36:00,50.9,49.5,29.90,WSW,246,0.0,1.0,95,0.00,,,0.00,WeatherCatV1.15B25,2013-05-28 12:36:00,
2013-05-28 05:41:00,50.9,49.5,29.90,SE,139,2.0,2.0,95,0.00,,,0.00,WeatherCatV1.15B25,2013-05-28 12:41:00,
2013-05-28 05:46:00,51.0,49.6,29.90,South,179,0.0,2.0,95,0.00,,,0.00,WeatherCatV1.15B25,2013-05-28 12:46:00,
2013-05-28 05:51:00,51.0,49.3,29.90,SE,142,1.0,2.0,94,0.00,,,0.00,WeatherCatV1.15B25,2013-05-28 12:51:00,
2013-05-28 05:56:00,51.1,49.4,29.90,South,176,1.0,2.0,94,0.00,,,0.00,WeatherCatV1.15B25,2013-05-28 12:56:00,
2013-05-28 06:01:00,51.1,49.4,29.90,South,172,2.0,2.0,94,0.00,,,0.00,WeatherCatV1.15B25,2013-05-28 13:01:00,
2013-05-28 06:06:00,51.2,49.5,29.90,SE,146,1.0,2.0,94,0.00,,,0.00,WeatherCatV1.15B25,2013-05-28 13:06:00,
2013-05-28 06:11:00,51.2,49.5,29.91,SW,233,0.0,3.0,94,0.00,,,0.00,WeatherCatV1.15B25,2013-05-28 13:11:00,
2013-05-28 06:16:00,51.2,49.5,29.91,South,189,1.0,2.0,94,0.00,,,0.00,WeatherCatV1.15B25,2013-05-28 13:16:00,
2013-05-28 06:21:00,51.3,49.3,29.90,SW,231,2.0,4.0,93,0.00,,,0.00,WeatherCatV1.15B25,2013-05-28 13:21:00,
2013-05-28 06:26:00,51.3,49.3,29.91,SW,226,3.0,3.0,93,0.00,,,0.00,WeatherCatV1.15B25,2013-05-28 13:26:00,
2013-05-28 06:31:00,51.3,49.3,29.91,SE,142,0.0,2.0,93,0.00,,,0.00,WeatherCatV1.15B25,2013-05-28 13:31:00,
2013-05-28 06:36:00,51.4,49.4,29.91,SSW,194,2.0,3.0,93,0.00,,,0.00,WeatherCatV1.15B25,2013-05-28 13:36:00,
2013-05-28 06:41:00,51.4,49.2,29.91,SSE,159,2.0,5.0,92,0.00,,,0.00,WeatherCatV1.15B25,2013-05-28 13:41:00,
2013-05-28 06:46:00,51.5,49.3,29.91,SSE,150,2.0,5.0,92,0.00,,,0.00,WeatherCatV1.15B25,2013-05-28 13:46:00,
2013-05-28 06:51:00,51.6,49.4,29.91,SSE,157,0.0,3.0,92,0.00,,,0.00,WeatherCatV1.15B25,2013-05-28 13:51:00,
2013-05-28 06:56:00,51.6,49.4,29.91,SSE,153,1.0,3.0,92,0.00,,,0.00,WeatherCatV1.15B25,2013-05-28 13:56:00,
2013-05-28 07:01:00,51.7,49.7,29.91,SE,129,2.0,4.0,93,0.00,,,0.00,WeatherCatV1.15B25,2013-05-28 14:01:00,
2013-05-28 07:06:00,51.8,49.8,29.91,SE,131,1.0,3.0,93,0.00,,,0.00,WeatherCatV1.15B25,2013-05-28 14:06:00,
2013-05-28 07:11:00,51.8,49.8,29.91,SW,218,1.0,2.0,93,0.00,,,0.00,WeatherCatV1.15B25,2013-05-28 14:11:00,
2013-05-28 07:16:00,51.9,49.9,29.91,SSE,153,2.0,3.0,93,0.00,,,0.00,WeatherCatV1.15B25,2013-05-28 14:16:00,
2013-05-28 07:21:00,51.8,49.5,29.91,South,169,2.0,6.0,92,0.00,,,0.00,WeatherCatV1.15B25,2013-05-28 14:21:00,
2013-05-28 07:26:00,51.9,49.6,29.92,SSW,212,4.0,5.0,92,0.00,,,0.00,WeatherCatV1.15B25,2013-05-28 14:26:00,
2013-05-28 07:31:00,51.8,49.5,29.92,SW,226,1.0,2.0,92,0.00,,,0.00,WeatherCatV1.15B25,2013-05-28 14:31:00,
2013-05-28 07:36:00,51.8,49.8,29.92,SSE,149,1.0,3.0,93,0.00,,,0.00,WeatherCatV1.15B25,2013-05-28 14:36:00,
2013-05-28 07:41:00,51.8,49.8,29.92,SSE,149,3.0,4.0,93,0.00,,,0.00,WeatherCatV1.15B25,2013-05-28 14:41:00,
2013-05-28 07:46:00,51.8,49.5,29.92,South,191,1.0,3.0,92,0.00,,,0.00,WeatherCatV1.15B25,2013-05-28 14:46:00,
2013-05-28 07:51:00,51.8,49.5,29.91,SW,224,0.0,3.0,92,0.00,,,0.00,WeatherCatV1.15B25,2013-05-28 14:51:00,
2013-05-28 07:56:00,51.9,49.6,29.91,South,177,2.0,5.0,92,0.00,,,0.00,WeatherCatV1.15B25,2013-05-28 14:56:00,
2013-05-28 08:01:00,52.0,50.0,29.92,South,190,3.0,5.0,93,0.00,,,0.00,WeatherCatV1.15B25,2013-05-28 15:01:00,
2013-05-28 08:06:00,52.0,49.7,29.92,SE,143,3.0,4.0,92,0.00,,,0.00,WeatherCatV1.15B25,2013-05-28 15:06:00,
2013-05-28 08:11:00,52.1,49.8,29.92,SSE,166,4.0,5.0,92,0.00,,,0.00,WeatherCatV1.15B25,2013-05-28 15:11:00,
2013-05-28 08:16:00,52.2,50.2,29.92,SSE,159,4.0,4.0,93,0.00,,,0.00,WeatherCatV1.15B25,2013-05-28 15:16:00,
2013-05-28 08:21:00,52.3,50.3,29.92,South,172,1.0,4.0,93,0.00,,,0.00,WeatherCatV1.15B25,2013-05-28 15:21:00,
2013-05-28 08:26:00,52.3,50.3,29.92,SE,127,1.0,3.0,93,0.00,,,0.00,WeatherCatV1.15B25,2013-05-28 15:26:00,
2013-05-28 08:31:00,52.4,50.1,29.92,SSE,166,3.0,4.0,92,0.00,,,0.00,WeatherCatV1.15B25,2013-05-28 15:31:00,
2013-05-28 08:36:00,52.4,50.1,29.92,SE,142,2.0,5.0,92,0.00,,,0.00,WeatherCatV1.15B25,2013-05-28 15:36:00,
2013-05-28 08:41:00,52.6,50.3,29.92,South,175,3.0,3.0,92,0.00,,,0.00,WeatherCatV1.15B25,2013-05-28 15:41:00,
2013-05-28 08:46:00,52.8,50.5,29.92,SSE,162,3.0,5.0,92,0.00,,,0.00,WeatherCatV1.15B25,2013-05-28 15:46:00,
2013-05-28 08:51:00,53.0,50.7,29.92,SSE,156,2.0,3.0,92,0.00,,,0.00,WeatherCatV1.15B25,2013-05-28 15:51:00,
2013-05-28 08:56:00,53.4,51.1,29.92,ESE,111,1.0,4.0,92,0.00,,,0.00,WeatherCatV1.15B25,2013-05-28 15:56:00,
2013-05-28 09:01:00,53.8,51.5,29.92,SE,126,4.0,4.0,92,0.00,,,0.00,WeatherCatV1.15B25,2013-05-28 16:01:00,
2013-05-28 09:06:00,54.0,51.1,29.92,SSE,168,3.0,6.0,90,0.00,,,0.01,WeatherCatV1.15B25,2013-05-28 16:06:00,
2013-05-28 09:11:00,54.0,51.4,29.92,SW,226,3.0,5.0,91,0.00,,,0.01,WeatherCatV1.15B25,2013-05-28 16:11:00,
2013-05-28 09:16:00,54.1,51.2,29.92,South,174,4.0,4.0,90,0.00,,,0.01,WeatherCatV1.15B25,2013-05-28 16:16:00,
2013-05-28 09:21:00,54.1,51.2,29.92,South,170,1.0,3.0,90,0.00,,,0.01,WeatherCatV1.15B25,2013-05-28 16:21:00,
2013-05-28 09:26:00,54.2,50.7,29.92,SSE,149,3.0,9.0,88,0.00,,,0.01,WeatherCatV1.15B25,2013-05-28 16:26:00,
2013-05-28 09:31:00,54.3,51.1,29.92,South,183,2.0,5.0,89,0.00,,,0.01,WeatherCatV1.15B25,2013-05-28 16:31:00,
2013-05-28 09:36:00,54.5,51.3,29.92,SE,131,4.0,5.0,89,0.00,,,0.01,WeatherCatV1.15B25,2013-05-28 16:36:00,
2013-05-28 09:41:00,54.7,51.5,29.92,SE,143,4.0,6.0,89,0.00,,,0.01,WeatherCatV1.15B25,2013-05-28 16:41:00,
2013-05-28 09:46:00,54.8,51.6,29.92,SE,138,3.0,3.0,89,0.00,,,0.01,WeatherCatV1.15B25,2013-05-28 16:46:00,
2013-05-28 09:51:00,54.9,51.7,29.92,South,189,2.0,4.0,89,0.00,,,0.01,WeatherCatV1.15B25,2013-05-28 16:51:00,
2013-05-28 09:56:00,55.2,52.0,29.93,SSE,153,2.0,4.0,89,0.00,,,0.01,WeatherCatV1.15B25,2013-05-28 16:56:00,
2013-05-28 10:01:00,55.5,52.0,29.92,SSW,193,3.0,3.0,88,0.00,,,0.01,WeatherCatV1.15B25,2013-05-28 17:01:00,
2013-05-28 10:06:00,55.5,51.7,29.93,SW,222,3.0,7.0,87,0.00,,,0.01,WeatherCatV1.15B25,2013-05-28 17:06:00,
2013-05-28 10:11:00,55.5,51.1,29.92,South,188,3.0,9.0,85,0.00,,,0.01,WeatherCatV1.15B25,2013-05-28 17:11:00,
2013-05-28 10:16:00,55.7,50.9,29.93,SSE,154,7.0,10.0,84,0.00,,,0.01,WeatherCatV1.15B25,2013-05-28 17:16:00,
2013-05-28 10:21:00,55.9,51.1,29.93,ESE,111,3.0,6.0,84,0.00,,,0.01,WeatherCatV1.15B25,2013-05-28 17:21:00,
2013-05-28 10:26:00,56.2,50.8,29.92,West,260,4.0,5.0,82,0.00,,,0.01,WeatherCatV1.15B25,2013-05-28 17:26:00,
2013-05-28 10:31:00,56.3,50.5,29.93,SSW,211,6.0,9.0,81,0.00,,,0.01,WeatherCatV1.15B25,2013-05-28 17:31:00,
2013-05-28 10:36:00,56.1,51.0,29.93,SW,222,4.0,6.0,83,0.00,,,0.01,WeatherCatV1.15B25,2013-05-28 17:36:00,
2013-05-28 10:41:00,56.3,50.5,29.93,SW,233,5.0,6.0,81,0.00,,,0.01,WeatherCatV1.15B25,2013-05-28 17:41:00,
2013-05-28 10:46:00,56.3,50.5,29.93,SSE,150,2.0,4.0,81,0.00,,,0.01,WeatherCatV1.15B25,2013-05-28 17:46:00,
2013-05-28 10:51:00,56.6,50.5,29.93,WSW,243,5.0,7.0,80,0.00,,,0.01,WeatherCatV1.15B25,2013-05-28 17:51:00,
2013-05-28 10:56:00,56.5,50.4,29.93,SW,218,3.0,7.0,80,0.00,,,0.01,WeatherCatV1.15B25,2013-05-28 17:56:00,
2013-05-28 11:01:00,56.4,50.6,29.93,WSW,257,3.0,7.0,81,0.00,,,0.01,WeatherCatV1.15B25,2013-05-28 18:01:00,
2013-05-28 11:06:00,56.5,50.7,29.93,WSW,239,5.0,6.0,81,0.00,,,0.01,WeatherCatV1.15B25,2013-05-28 18:06:00,
2013-05-28 11:11:00,57.0,51.9,29.92,South,191,2.0,5.0,83,0.00,,,0.01,WeatherCatV1.15B25,2013-05-28 18:11:00,
2013-05-28 11:16:00,57.4,50.9,29.92,WSW,254,3.0,3.0,79,0.00,,,0.01,WeatherCatV1.15B25,2013-05-28 18:16:00,
2013-05-28 11:21:00,57.7,51.2,29.93,SE,134,2.0,2.0,79,0.00,,,0.01,WeatherCatV1.15B25,2013-05-28 18:21:00,
2013-05-28 11:26:00,58.2,51.4,29.92,SSE,149,1.0,4.0,78,0.00,,,0.01,WeatherCatV1.15B25,2013-05-28 18:26:00,
2013-05-28 11:31:00,58.0,50.8,29.93,SSE,166,1.0,7.0,77,0.00,,,0.01,WeatherCatV1.15B25,2013-05-28 18:31:00,
2013-05-28 11:36:00,57.8,50.6,29.93,South,180,5.0,7.0,77,0.00,,,0.01,WeatherCatV1.15B25,2013-05-28 18:36:00,
2013-05-28 11:41:00,57.4,50.6,29.93,WSW,252,4.0,9.0,78,0.00,,,0.01,WeatherCatV1.15B25,2013-05-28 18:41:00,
2013-05-28 11:46:00,57.0,50.5,29.93,WNW,298,5.0,5.0,79,0.00,,,0.01,WeatherCatV1.15B25,2013-05-28 18:46:00,
2013-05-28 11:51:00,56.6,50.8,29.93,SSW,208,5.0,6.0,81,0.00,,,0.01,WeatherCatV1.15B25,2013-05-28 18:51:00,
2013-05-28 11:56:00,56.6,50.8,29.93,SW,222,4.0,7.0,81,0.00,,,0.01,WeatherCatV1.15B25,2013-05-28 18:56:00,
2013-05-28 12:01:00,56.5,50.1,29.93,WSW,257,5.0,6.0,79,0.00,,,0.01,WeatherCatV1.15B25,2013-05-28 19:01:00,
2013-05-28 12:06:00,56.7,50.3,29.93,West,271,2.0,6.0,79,0.00,,,0.01,WeatherCatV1.15B25,2013-05-28 19:06:00,
2013-05-28 12:11:00,56.7,49.9,29.93,SW,226,4.0,7.0,78,0.00,,,0.01,WeatherCatV1.15B25,2013-05-28 19:11:00,
2013-05-28 12:16:00,57.0,51.2,29.94,WSW,249,5.0,5.0,81,0.00,,,0.01,WeatherCatV1.15B25,2013-05-28 19:16:00,
2013-05-28 12:21:00,57.0,51.2,29.94,SSW,207,6.0,8.0,81,0.00,,,0.01,WeatherCatV1.15B25,2013-05-28 19:21:00,
2013-05-28 12:26:00,56.3,51.5,29.94,SSW,205,11.0,12.0,84,0.00,,,0.01,WeatherCatV1.15B25,2013-05-28 19:26:00,
2013-05-28 12:31:00,55.5,51.7,29.94,WNW,287,1.0,7.0,87,0.00,,,0.01,WeatherCatV1.15B25,2013-05-28 19:31:00,
2013-05-28 12:36:00,55.0,51.5,29.94,South,179,2.0,5.0,88,0.00,,,0.02,WeatherCatV1.15B25,2013-05-28 19:36:00,
2013-05-28 12:41:00,54.7,50.9,29.94,WSW,249,1.0,3.0,87,0.00,,,0.02,WeatherCatV1.15B25,2013-05-28 19:41:00,
2013-05-28 12:46:00,54.7,51.2,29.94,WSW,239,4.0,5.0,88,0.00,,,0.02,WeatherCatV1.15B25,2013-05-28 19:46:00,
2013-05-28 12:51:00,54.6,51.1,29.94,SSW,212,3.0,4.0,88,0.00,,,0.02,WeatherCatV1.15B25,2013-05-28 19:51:00,
2013-05-28 12:56:00,54.6,51.7,29.94,SW,218,4.0,4.0,90,0.00,,,0.02,WeatherCatV1.15B25,2013-05-28 19:56:00,
2013-05-28 13:01:00,55.0,51.8,29.94,SW,214,5.0,6.0,89,0.00,,,0.02,WeatherCatV1.15B25,2013-05-28 20:01:00,
2013-05-28 13:06:00,55.9,53.0,29.94,SSW,208,6.0,8.0,90,0.00,,,0.02,WeatherCatV1.15B25,2013-05-28 20:06:00,
2013-05-28 13:11:00,56.2,52.7,29.94,SW,233,3.0,7.0,88,0.00,,,0.02,WeatherCatV1.15B25,2013-05-28 20:11:00,
2013-05-28 13:16:00,56.7,53.2,29.94,WSW,240,4.0,7.0,88,0.00,,,0.02,WeatherCatV1.15B25,2013-05-28 20:16:00,
2013-05-28 13:21:00,56.6,52.5,29.94,WSW,252,4.0,7.0,86,0.00,,,0.02,WeatherCatV1.15B25,2013-05-28 20:21:00,
2013-05-28 13:26:00,56.7,51.6,29.94,SW,225,5.0,8.0,83,0.00,,,0.02,WeatherCatV1.15B25,2013-05-28 20:26:00,
2013-05-28 13:31:00,57.0,52.2,29.94,South,187,9.0,9.0,84,0.00,,,0.02,WeatherCatV1.15B25,2013-05-28 20:31:00,
2013-05-28 13:36:00,57.6,52.1,29.94,SSW,193,7.0,8.0,82,0.00,,,0.02,WeatherCatV1.15B25,2013-05-28 20:36:00,
2013-05-28 13:41:00,57.7,51.2,29.94,SSW,196,7.0,10.0,79,0.00,,,0.02,WeatherCatV1.15B25,2013-05-28 20:41:00,
2013-05-28 13:46:00,57.8,50.6,29.94,South,187,8.0,13.0,77,0.00,,,0.02,WeatherCatV1.15B25,2013-05-28 20:46:00,
2013-05-28 13:51:00,58.0,51.5,29.94,South,179,2.0,7.0,79,0.00,,,0.02,WeatherCatV1.15B25,2013-05-28 20:51:00,
2013-05-28 13:56:00,57.8,49.6,29.94,SW,232,14.0,15.0,74,0.00,,,0.02,WeatherCatV1.15B25,2013-05-28 20:56:00,
2013-05-28 14:01:00,58.0,50.1,29.94,North,11,3.0,10.0,75,0.00,,,0.02,WeatherCatV1.15B25,2013-05-28 21:01:00,
2013-05-28 14:06:00,58.7,50.8,29.93,NNW,346,3.0,6.0,75,0.00,,,0.02,WeatherCatV1.15B25,2013-05-28 21:06:00,
2013-05-28 14:11:00,59.1,50.5,29.94,SW,215,7.0,9.0,73,0.00,,,0.02,WeatherCatV1.15B25,2013-05-28 21:11:00,
2013-05-28 14:16:00,59.0,50.7,29.94,SW,218,4.0,11.0,74,0.00,,,0.02,WeatherCatV1.15B25,2013-05-28 21:16:00,
2013-05-28 14:21:00,58.1,49.9,29.94,SW,224,7.0,10.0,74,0.00,,,0.02,WeatherCatV1.15B25,2013-05-28 21:21:00,
2013-05-28 14:26:00,58.0,51.5,29.94,SW,218,2.0,2.0,79,0.00,,,0.02,WeatherCatV1.15B25,2013-05-28 21:26:00,
2013-05-28 14:31:00,57.5,50.7,29.94,SSW,203,4.0,10.0,78,0.00,,,0.02,WeatherCatV1.15B25,2013-05-28 21:31:00,
2013-05-28 14:36:00,57.5,51.7,29.94,South,179,4.0,6.0,81,0.00,,,0.02,WeatherCatV1.15B25,2013-05-28 21:36:00,
2013-05-28 14:41:00,57.8,51.0,29.94,WNW,295,1.0,3.0,78,0.00,,,0.02,WeatherCatV1.15B25,2013-05-28 21:41:00,
2013-05-28 14:46:00,59.0,51.8,29.93,West,281,1.0,3.0,77,0.00,,,0.02,WeatherCatV1.15B25,2013-05-28 21:46:00,
2013-05-28 14:51:00,58.9,51.3,29.93,WSW,238,0.0,4.0,76,0.00,,,0.02,WeatherCatV1.15B25,2013-05-28 21:51:00,
2013-05-28 14:56:00,58.9,51.3,29.93,SW,221,2.0,5.0,76,0.00,,,0.02,WeatherCatV1.15B25,2013-05-28 21:56:00,
2013-05-28 15:01:00,58.6,51.1,29.93,NW,326,4.0,6.0,76,0.00,,,0.02,WeatherCatV1.15B25,2013-05-28 22:01:00,
2013-05-28 15:06:00,57.9,50.7,29.93,SW,229,10.0,16.0,77,0.00,,,0.02,WeatherCatV1.15B25,2013-05-28 22:06:00,
2013-05-28 15:11:00,57.3,50.5,29.93,SSW,208,7.0,10.0,78,0.00,,,0.02,WeatherCatV1.15B25,2013-05-28 22:11:00,
2013-05-28 15:16:00,57.2,50.7,29.93,SSE,153,2.0,7.0,79,0.00,,,0.02,WeatherCatV1.15B25,2013-05-28 22:16:00,
2013-05-28 15:21:00,57.5,51.0,29.93,SW,221,7.0,11.0,79,0.00,,,0.02,WeatherCatV1.15B25,2013-05-28 22:21:00,
2013-05-28 15:26:00,57.4,50.9,29.93,WSW,249,5.0,9.0,79,0.00,,,0.02,WeatherCatV1.15B25,2013-05-28 22:26:00,
2013-05-28 15:31:00,57.4,51.3,29.93,SSW,211,0.0,6.0,80,0.00,,,0.02,WeatherCatV1.15B25,2013-05-28 22:31:00,
2013-05-28 15:36:00,57.4,50.9,29.93,SW,233,6.0,11.0,79,0.00,,,0.02,WeatherCatV1.15B25,2013-05-28 22:36:00,
2013-05-28 15:41:00,57.2,51.4,29.93,South,181,2.0,4.0,81,0.00,,,0.02,WeatherCatV1.15B25,2013-05-28 22:41:00,
2013-05-28 15:46:00,57.0,50.9,29.93,WSW,245,6.0,7.0,80,0.00,,,0.02,WeatherCatV1.15B25,2013-05-28 22:46:00,
2013-05-28 15:51:00,56.9,50.5,29.93,SW,217,9.0,9.0,79,0.00,,,0.02,WeatherCatV1.15B25,2013-05-28 22:51:00,
2013-05-28 15:56:00,56.9,50.5,29.93,WSW,241,2.0,6.0,79,0.00,,,0.02,WeatherCatV1.15B25,2013-05-28 22:56:00,
2013-05-28 16:01:00,56.9,50.8,29.93,SSW,210,1.0,4.0,80,0.00,,,0.02,WeatherCatV1.15B25,2013-05-28 23:01:00,
2013-05-28 16:06:00,57.1,51.3,29.93,South,176,4.0,6.0,81,0.00,,,0.03,WeatherCatV1.15B25,2013-05-28 23:06:00,
2013-05-28 16:11:00,57.1,51.3,29.93,WSW,252,2.0,5.0,81,0.00,,,0.03,WeatherCatV1.15B25,2013-05-28 23:11:00,
2013-05-28 16:16:00,57.3,50.8,29.93,South,174,4.0,6.0,79,0.00,,,0.03,WeatherCatV1.15B25,2013-05-28 23:16:00,
2013-05-28 16:21:00,57.9,52.1,29.93,South,171,3.0,4.0,81,0.00,,,0.03,WeatherCatV1.15B25,2013-05-28 23:21:00,
2013-05-28 16:26:00,58.9,52.0,29.93,SW,229,5.0,10.0,78,0.00,,,0.03,WeatherCatV1.15B25,2013-05-28 23:26:00,
2013-05-28 16:31:00,59.3,51.7,29.93,WNW,291,5.0,7.0,76,0.00,,,0.03,WeatherCatV1.15B25,2013-05-28 23:31:00,
2013-05-28 16:36:00,59.1,51.9,29.93,SW,217,3.0,4.0,77,0.00,,,0.03,WeatherCatV1.15B25,2013-05-28 23:36:00,
2013-05-28 16:41:00,59.1,52.2,29.93,SW,226,2.0,6.0,78,0.00,,,0.03,WeatherCatV1.15B25,2013-05-28 23:41:00,
2013-05-28 16:46:00,59.0,51.8,29.93,East,99,7.0,14.0,77,0.00,,,0.03,WeatherCatV1.15B25,2013-05-28 23:46:00,
2013-05-28 16:51:00,58.4,51.2,29.93,West,269,4.0,9.0,77,0.00,,,0.03,WeatherCatV1.15B25,2013-05-28 23:51:00,
2013-05-28 16:56:00,57.9,51.1,29.93,West,271,5.0,12.0,78,0.00,,,0.03,WeatherCatV1.15B25,2013-05-28 23:56:00,
2013-05-28 17:01:00,57.2,50.7,29.94,WSW,242,8.0,8.0,79,0.00,,,0.03,WeatherCatV1.15B25,2013-05-29 00:01:00,
2013-05-28 17:06:00,56.6,51.2,29.94,WSW,258,4.0,10.0,82,0.00,,,0.03,WeatherCatV1.15B25,2013-05-29 00:06:00,
2013-05-28 17:11:00,55.9,51.5,29.94,South,186,7.0,7.0,85,0.00,,,0.04,WeatherCatV1.15B25,2013-05-29 00:11:00,
2013-05-28 17:16:00,55.3,51.5,29.94,WSW,246,3.0,10.0,87,0.00,,,0.04,WeatherCatV1.15B25,2013-05-29 00:16:00,
2013-05-28 17:21:00,54.7,51.2,29.94,South,183,5.0,5.0,88,0.00,,,0.04,WeatherCatV1.15B25,2013-05-29 00:21:00,
2013-05-28 17:26:00,54.5,51.0,29.93,SSW,210,5.0,7.0,88,0.04,,,0.05,WeatherCatV1.15B25,2013-05-29 00:26:00,
2013-05-28 17:31:00,54.6,51.7,29.93,SSW,200,1.0,2.0,90,0.04,,,0.05,WeatherCatV1.15B25,2013-05-29 00:31:00,
2013-05-28 17:36:00,54.9,51.7,29.93,South,174,1.0,3.0,89,0.04,,,0.05,WeatherCatV1.15B25,2013-05-29 00:36:00,
2013-05-28 17:41:00,55.0,51.8,29.92,SSE,147,2.0,2.0,89,0.00,,,0.05,WeatherCatV1.15B25,2013-05-29 00:41:00,
2013-05-28 17:46:00,55.2,51.4,29.92,SSW,194,2.0,2.0,87,0.00,,,0.05,WeatherCatV1.15B25,2013-05-29 00:46:00,
2013-05-28 17:51:00,55.4,52.2,29.92,SSW,198,1.0,2.0,89,0.00,,,0.05,WeatherCatV1.15B25,2013-05-29 00:51:00,
2013-05-28 17:56:00,55.3,51.8,29.92,SSW,211,3.0,6.0,88,0.00,,,0.05,WeatherCatV1.15B25,2013-05-29 00:56:00,
2013-05-28 18:01:00,55.3,51.8,29.92,SSW,212,7.0,7.0,88,0.00,,,0.05,WeatherCatV1.15B25,2013-05-29 01:01:00,
2013-05-28 18:06:00,55.1,51.6,29.92,WSW,248,2.0,4.0,88,0.00,,,0.05,WeatherCatV1.15B25,2013-05-29 01:06:00,
2013-05-28 18:11:00,55.1,51.3,29.92,WSW,250,2.0,8.0,87,0.00,,,0.05,WeatherCatV1.15B25,2013-05-29 01:11:00,
2013-05-28 18:16:00,55.0,51.2,29.92,SSW,211,3.0,4.0,87,0.00,,,0.05,WeatherCatV1.15B25,2013-05-29 01:16:00,
2013-05-28 18:21:00,55.0,51.2,29.92,SSE,163,3.0,6.0,87,0.00,,,0.05,WeatherCatV1.15B25,2013-05-29 01:21:00,
2013-05-28 18:26:00,54.9,51.4,29.92,SW,215,5.0,5.0,88,0.00,,,0.05,WeatherCatV1.15B25,2013-05-29 01:26:00,
2013-05-28 18:31:00,54.8,51.0,29.91,South,179,2.0,4.0,87,0.00,,,0.05,WeatherCatV1.15B25,2013-05-29 01:31:00,
2013-05-28 18:36:00,54.8,51.3,29.91,SW,219,1.0,2.0,88,0.00,,,0.05,WeatherCatV1.15B25,2013-05-29 01:36:00,
2013-05-28 18:41:00,54.9,51.4,29.91,SE,146,1.0,2.0,88,0.00,,,0.05,WeatherCatV1.15B25,2013-05-29 01:41:00,
2013-05-28 18:46:00,54.9,51.4,29.91,South,169,2.0,3.0,88,0.00,,,0.05,WeatherCatV1.15B25,2013-05-29 01:46:00,
2013-05-28 18:51:00,54.9,51.7,29.90,SE,136,1.0,2.0,89,0.00,,,0.05,WeatherCatV1.15B25,2013-05-29 01:51:00,
2013-05-28 18:56:00,54.9,51.7,29.90,SSE,147,2.0,2.0,89,0.00,,,0.05,WeatherCatV1.15B25,2013-05-29 01:56:00,
2013-05-28 19:01:00,54.7,51.2,29.90,SSE,153,3.0,4.0,88,0.00,,,0.05,WeatherCatV1.15B25,2013-05-29 02:01:00,
2013-05-28 19:06:00,54.6,51.4,29.90,South,177,1.0,1.0,89,0.00,,,0.05,WeatherCatV1.15B25,2013-05-29 02:06:00,
2013-05-28 19:11:00,54.5,51.3,29.90,SE,142,1.0,1.0,89,0.00,,,0.05,WeatherCatV1.15B25,2013-05-29 02:11:00,
2013-05-28 19:16:00,54.5,51.3,29.89,ESE,105,0.0,2.0,89,0.00,,,0.05,WeatherCatV1.15B25,2013-05-29 02:16:00,
2013-05-28 19:21:00,54.5,51.3,29.89,SE,141,1.0,2.0,89,0.00,,,0.05,WeatherCatV1.15B25,2013-05-29 02:21:00,
2013-05-28 19:26:00,54.5,51.3,29.89,SE,141,2.0,2.0,89,0.00,,,0.05,WeatherCatV1.15B25,2013-05-29 02:26:00,
2013-05-28 19:31:00,54.5,51.6,29.89,SE,142,0.0,2.0,90,0.00,,,0.05,WeatherCatV1.15B25,2013-05-29 02:31:00,
2013-05-28 19:36:00,54.4,51.5,29.89,ESE,114,1.0,2.0,90,0.00,,,0.05,WeatherCatV1.15B25,2013-05-29 02:36:00,
2013-05-28 19:41:00,54.3,51.4,29.89,SE,138,1.0,2.0,90,0.00,,,0.05,WeatherCatV1.15B25,2013-05-29 02:41:00,
2013-05-28 19:46:00,54.3,51.7,29.89,ESE,116,2.0,2.0,91,0.00,,,0.05,WeatherCatV1.15B25,2013-05-29 02:46:00,
2013-05-28 19:51:00,54.3,51.4,29.89,SE,134,0.0,2.0,90,0.00,,,0.05,WeatherCatV1.15B25,2013-05-29 02:51:00,
2013-05-28 19:56:00,54.3,51.7,29.89,SE,131,0.0,1.0,91,0.00,,,0.05,WeatherCatV1.15B25,2013-05-29 02:56:00,
2013-05-28 20:01:00,54.3,51.4,29.89,SE,143,1.0,1.0,90,0.00,,,0.05,WeatherCatV1.15B25,2013-05-29 03:01:00,
2013-05-28 20:06:00,54.3,51.4,29.89,SSE,155,0.0,2.0,90,0.00,,,0.05,WeatherCatV1.15B25,2013-05-29 03:06:00,
2013-05-28 20:11:00,54.2,51.3,29.89,ESE,121,2.0,4.0,90,0.00,,,0.05,WeatherCatV1.15B25,2013-05-29 03:11:00,
2013-05-28 20:16:00,54.1,51.2,29.89,SE,136,0.0,2.0,90,0.00,,,0.05,WeatherCatV1.15B25,2013-05-29 03:16:00,
2013-05-28 20:21:00,53.9,51.3,29.88,ESE,118,1.0,1.0,91,0.00,,,0.05,WeatherCatV1.15B25,2013-05-29 03:21:00,
2013-05-28 20:26:00,53.8,51.2,29.88,ESE,121,1.0,2.0,91,0.00,,,0.05,WeatherCatV1.15B25,2013-05-29 03:26:00,
2013-05-28 20:31:00,53.7,51.1,29.88,SE,135,1.0,2.0,91,0.00,,,0.05,WeatherCatV1.15B25,2013-05-29 03:31:00,
2013-05-28 20:36:00,53.6,51.3,29.88,SE,146,0.0,2.0,92,0.00,,,0.05,WeatherCatV1.15B25,2013-05-29 03:36:00,
2013-05-28 20:41:00,53.6,51.3,29.88,SSW,211,2.0,3.0,92,0.00,,,0.05,WeatherCatV1.15B25,2013-05-29 03:41:00,
2013-05-28 20:46:00,53.5,51.2,29.88,SE,128,1.0,3.0,92,0.00,,,0.05,WeatherCatV1.15B25,2013-05-29 03:46:00,
2013-05-28 20:51:00,53.5,51.2,29.88,SE,136,1.0,3.0,92,0.00,,,0.05,WeatherCatV1.15B25,2013-05-29 03:51:00,
2013-05-28 20:56:00,53.4,51.4,29.87,ESE,104,2.0,2.0,93,0.00,,,0.05,WeatherCatV1.15B25,2013-05-29 03:56:00,
2013-05-28 21:01:00,53.3,51.3,29.87,ESE,104,1.0,3.0,93,0.00,,,0.05,WeatherCatV1.15B25,2013-05-29 04:01:00,
2013-05-28 21:06:00,53.2,51.2,29.87,SSW,212,1.0,2.0,93,0.00,,,0.05,WeatherCatV1.15B25,2013-05-29 04:06:00,
2013-05-28 21:11:00,53.2,51.2,29.87,SSE,165,0.0,1.0,93,0.00,,,0.05,WeatherCatV1.15B25,2013-05-29 04:11:00,
2013-05-28 21:16:00,53.1,51.1,29.87,SSE,157,1.0,3.0,93,0.00,,,0.05,WeatherCatV1.15B25,2013-05-29 04:16:00,
2013-05-28 21:21:00,53.0,51.0,29.87,SSE,149,2.0,2.0,93,0.00,,,0.05,WeatherCatV1.15B25,2013-05-29 04:21:00,
2013-05-28 21:26:00,52.9,50.9,29.87,SW,215,1.0,2.0,93,0.00,,,0.05,WeatherCatV1.15B25,2013-05-29 04:26:00,
2013-05-28 21:31:00,52.9,50.9,29.87,SSW,205,0.0,1.0,93,0.00,,,0.05,WeatherCatV1.15B25,2013-05-29 04:31:00,
2013-05-28 21:36:00,52.8,50.8,29.87,SE,136,1.0,1.0,93,0.00,,,0.05,WeatherCatV1.15B25,2013-05-29 04:36:00,
2013-05-28 21:41:00,52.7,50.7,29.87,SSE,154,1.0,3.0,93,0.00,,,0.05,WeatherCatV1.15B25,2013-05-29 04:41:00,
2013-05-28 21:46:00,52.6,50.6,29.87,SSW,195,0.0,1.0,93,0.00,,,0.05,WeatherCatV1.15B25,2013-05-29 04:46:00,
2013-05-28 21:51:00,52.6,50.3,29.87,SE,139,2.0,2.0,92,0.00,,,0.05,WeatherCatV1.15B25,2013-05-29 04:51:00,
2013-05-28 21:56:00,52.6,50.6,29.87,SSE,147,0.0,0.0,93,0.00,,,0.05,WeatherCatV1.15B25,2013-05-29 04:56:00,
2013-05-28 22:01:00,52.5,50.5,29.87,SSW,198,1.0,2.0,93,0.00,,,0.05,WeatherCatV1.15B25,2013-05-29 05:01:00,
2013-05-28 22:06:00,52.3,50.0,29.87,SSE,153,1.0,2.0,92,0.00,,,0.05,WeatherCatV1.15B25,2013-05-29 05:06:00,
2013-05-28 22:11:00,52.1,50.1,29.87,SSE,149,1.0,1.0,93,0.00,,,0.05,WeatherCatV1.15B25,2013-05-29 05:11:00,
2013-05-28 22:16:00,52.0,50.0,29.87,SE,143,0.0,0.0,93,0.00,,,0.05,WeatherCatV1.15B25,2013-05-29 05:16:00,
2013-05-28 22:21:00,51.8,49.8,29.86,ESE,115,1.0,1.0,93,0.00,,,0.06,WeatherCatV1.15B25,2013-05-29 05:21:00,
2013-05-28 22:26:00,51.9,50.2,29.85,ENE,68,2.0,2.0,94,0.00,,,0.06,WeatherCatV1.15B25,2013-05-29 05:26:00,
2013-05-28 22:31:00,51.8,50.1,29.85,East,101,0.0,2.0,94,0.00,,,0.06,WeatherCatV1.15B25,2013-05-29 05:31:00,
2013-05-28 22:36:00,51.6,50.2,29.85,NE,54,2.0,2.0,95,0.00,,,0.06,WeatherCatV1.15B25,2013-05-29 05:36:00,
2013-05-28 22:41:00,51.4,50.0,29.85,NE,34,0.0,2.0,95,0.00,,,0.06,WeatherCatV1.15B25,2013-05-29 05:41:00,
2013-05-28 22:46:00,51.4,50.0,29.84,NE,53,3.0,3.0,95,0.00,,,0.06,WeatherCatV1.15B25,2013-05-29 05:46:00,
2013-05-28 22:51:00,51.3,49.9,29.84,NE,47,2.0,2.0,95,0.00,,,0.06,WeatherCatV1.15B25,2013-05-29 05:51:00,
2013-05-28 22:56:00,51.2,49.8,29.84,ENE,64,2.0,2.0,95,0.00,,,0.06,WeatherCatV1.15B25,2013-05-29 05:56:00,
2013-05-28 23:01:00,51.1,49.7,29.84,ENE,62,0.0,2.0,95,0.00,,,0.06,WeatherCatV1.15B25,2013-05-29 06:01:00,
2013-05-28 23:06:00,51.0,49.6,29.84,ENE,60,0.0,0.0,95,0.00,,,0.06,WeatherCatV1.15B25,2013-05-29 06:06:00,
2013-05-28 23:11:00,50.8,49.4,29.84,ENE,60,1.0,1.0,95,0.00,,,0.06,WeatherCatV1.15B25,2013-05-29 06:11:00,
2013-05-28 23:16:00,50.7,49.3,29.84,ENE,61,0.0,0.0,95,0.00,,,0.06,WeatherCatV1.15B25,2013-05-29 06:16:00,
2013-05-28 23:21:00,50.7,49.6,29.84,ENE,60,0.0,0.0,96,0.00,,,0.06,WeatherCatV1.15B25,2013-05-29 06:21:00,
2013-05-28 23:26:00,50.6,49.5,29.84,ENE,60,2.0,2.0,96,0.00,,,0.06,WeatherCatV1.15B25,2013-05-29 06:26:00,
2013-05-28 23:31:00,50.7,49.6,29.83,NE,34,2.0,3.0,96,0.00,,,0.06,WeatherCatV1.15B25,2013-05-29 06:31:00,
2013-05-28 23:36:00,50.7,49.6,29.83,NNE,32,0.0,2.0,96,0.00,,,0.06,WeatherCatV1.15B25,2013-05-29 06:36:00,
2013-05-28 23:41:00,50.6,49.5,29.82,NNE,14,1.0,1.0,96,0.00,,,0.06,WeatherCatV1.15B25,2013-05-29 06:41:00,
2013-05-28 23:46:00,50.6,49.5,29.82,NNE,23,1.0,3.0,96,0.00,,,0.06,WeatherCatV1.15B25,2013-05-29 06:46:00,
2013-05-28 23:51:00,50.5,49.4,29.82,NNE,25,1.0,2.0,96,0.00,,,0.06,WeatherCatV1.15B25,2013-05-29 06:51:00,
2013-05-28 23:56:00,50.5,49.4,29.82,North,5,1.0,2.0,96,0.00,,,0.06,WeatherCatV1.15B25,2013-05-29 06:56:00,